Vacaville, CA

4:51 PM PST on January 22, 2017 (GMT -0800)
Nut Tree

Weather History for KVCB - July, 2013

Change the Weather History Date:

Monday, July 8, 2013

  Actual Average Record
Temperature  
Mean Temperature 75 °F -  
Max Temperature 93 °F 92 °F 111 °F (2008)
Min Temperature 57 °F 54 °F 47 °F (1963)
Cooling Degree Days 10    
Growing Degree Days 25 (Base 50)    
Moisture  
Dew Point 42 °F    
Average Humidity 39    
Maximum Humidity 74    
Minimum Humidity 6    
Precipitation  
Precipitation 0.00 in - - ()
Sea Level Pressure  
Sea Level Pressure 29.87 in    
Wind  
Wind Speed 8 mph (SW)    
Max Wind Speed 14 mph    
Max Gust Speed 20 mph    
Visibility 10 miles    
Events      
Averages and records for this station are not official NWS values.
T = Trace of Precipitation, MM = Missing Value Source: NWS Daily Summary

Daily Weather History Graph

Daily Weather History Graph

Search for Another Location

Airport or City:

Trip Planner

Search our weather history database for the weather conditions in past years. The results will help you decide how hot, cold, wet, or windy it might be!

Date:

Astronomy

Jul. 08, 2013 Rise Set
Actual Time 5:51 AM PDT 8:33 PM PDT
Civil Twilight 5:20 AM PDT 9:05 PM PDT
Nautical Twilight 4:41 AM PDT 9:44 PM PDT
Astronomical Twilight 3:57 AM PDT 10:27 PM PDT
Moon 6:24 AM PDT (7/8) 8:41 PM PDT (7/8)
Length of Visible Light 15h 44m
Length of Day
14h 42m
New Moon, 0% of the Moon is Illuminated
Jul 8
New Moon
Jul 15
First Quarter
Jul 22
Full
Jul 29
Last Quarter
Aug 6
New

Hourly Weather History & Observations

Time (PDT) Temp. Dew Point Humidity Pressure Visibility Wind Dir Wind Speed Gust Speed Precip Events Conditions
12:53 AM 64.9 °F 46.0 °F 50% 29.79 in 10.0 mi SW 9.2 mph - N/A   Clear
1:53 AM 62.1 °F 48.0 °F 60% 29.80 in 10.0 mi SW 10.4 mph - N/A   Clear
2:53 AM 60.1 °F 48.9 °F 67% 29.80 in 10.0 mi SW 9.2 mph - N/A   Clear
3:53 AM 59.0 °F 48.9 °F 69% 29.81 in 10.0 mi SW 6.9 mph - N/A   Clear
4:53 AM 57.0 °F 48.9 °F 74% 29.83 in 10.0 mi WSW 5.8 mph - N/A   Clear
5:53 AM 57.0 °F 48.9 °F 74% 29.84 in 10.0 mi SW 6.9 mph - N/A   Clear
6:53 AM 59.0 °F 48.9 °F 69% 29.86 in 10.0 mi WSW 9.2 mph - N/A   Clear
7:53 AM 64.0 °F 50.0 °F 60% 29.88 in 10.0 mi WSW 8.1 mph - N/A   Clear
8:53 AM 69.1 °F 50.0 °F 51% 29.90 in 10.0 mi SW 3.5 mph - N/A   Clear
9:53 AM 73.9 °F 51.1 °F 45% 29.91 in 10.0 mi South 4.6 mph - N/A   Clear
10:53 AM 79.0 °F 50.0 °F 36% 29.91 in 10.0 mi SSW 3.5 mph - N/A   Clear
11:53 AM 84.0 °F 50.0 °F 31% 29.91 in 10.0 mi Calm Calm - N/A   Clear
12:53 PM 89.1 °F 46.0 °F 22% 29.91 in 10.0 mi SSE 6.9 mph - N/A   Clear
1:53 PM 91.0 °F 27.0 °F 10% 29.90 in 10.0 mi South 9.2 mph - N/A   Clear
2:53 PM 91.9 °F 18.0 °F 7% 29.90 in 10.0 mi SSW 10.4 mph - N/A   Clear
3:53 PM 93.0 °F 17.1 °F 6% 29.89 in 10.0 mi SW 13.8 mph 18.4 mph N/A   Clear
4:53 PM 93.0 °F 23.0 °F 8% 29.88 in 10.0 mi SSW 10.4 mph 19.6 mph N/A   Clear
5:53 PM 91.0 °F 21.9 °F 8% 29.87 in 10.0 mi SW 12.7 mph - N/A   Clear
6:53 PM 89.1 °F 19.9 °F 8% 29.88 in 10.0 mi SW 10.4 mph 16.1 mph N/A   Clear
7:53 PM 84.0 °F 37.9 °F 19% 29.88 in 10.0 mi SSW 4.6 mph - N/A   Clear
8:53 PM 79.0 °F 43.0 °F 28% 29.89 in 10.0 mi South 5.8 mph - N/A   Clear
9:53 PM 75.9 °F 48.0 °F 37% 29.91 in 10.0 mi South 5.8 mph - N/A   Clear
10:53 PM 73.0 °F 52.0 °F 48% 29.91 in 10.0 mi WSW 11.5 mph - N/A   Clear
11:53 PM 69.1 °F 53.1 °F 57% 29.92 in 10.0 mi Calm Calm - N/A   Clear